Kezdőlap
METAR-TAF:

METAR-TAF

Repülőterek :

Anoka County-Blaine Airport (Janes Field)

Minneapolis-Blaine, Minnesota, Amerikai Egyesült Államok

földrajzi szélesség: 45-09N, földrajzi hosszúság: 093-13W, magasság: 278 m

Jelenlegi meteorológiai megfigyelések

A jelentés 23 perccel ezelõtt készült, 20:45 UTC
Nyugat-délnyugati szél 4 kt
Hőmérséklet 21°C
Páratartalom 38%
Légköri nyomás 1024 hPa
Látótávolság: 16.1 km
Derült ég

METAR: KANE 222045Z 24004KT 10SM CLR 21/06 A3023

Idő: 16:08 (21:08 UTC)


TAF: hiányzik

Meteorológiai megfigyelések és előrejelzések több, mint 4000 repülőtéren (METAR és TAF jelentéseket).

A térképen piros és sárga pontok jelzik az elérhető meteorológiai állomásokat.

Mozgassa az egeret a pont fölött, hogy megjelenjen az állomás neve.

Azután kattintson az időjárási megfigyelések és előrejelzések megtekintéséhez.

A térkép megváltoztatása: kattintson a fekete keresztel jelölt zöld gombra ráközelítéshez, a vonallal jelölt zöld gombra távolításhoz, vagy a zöld nyilakra a szomszédos térképek eléréséhez.


METAR-TAF: